STARLINK-1931 (46790 NORAD) Tracking and Keplerian Element Data

This shows tracking and keplerian element data for the satellite.

Feedback or suggestion? Click here.




ElementValue
Catalog46790
NameSTARLINK-1931
Epoch Orbit481
Epoch Day328.16667824
Epoch Year2020
RAAN15.4551
Inclination53.0551
Eccentricity9.84E-05
Argument of Perigee66.3259
Mean Anonmoly176.2395
Mean Motion15.62761509
Decay Rate0.00044774
L11 46790U 20074BD 20328.16667824 .00044774 00000-0 49197-3 0 9993
L22 46790 53.0551 15.4551 0000984 66.3259 176.2395 15.62761509 4818

Live tracking and technical data element details for STARLINK-1931 (NORAD 46790). STARLINK-1931 can be tracked NOW for your location showing map with azimuth and elevation plus other details from your city location.

Track the satellite on the map from your city or location and see movement details for azimuth, elevation, latitude, longitude, range, height, and movement on the map or in text.







IsCatalogInMostPopularTable: catalog: 46790, numindb: 4
Update: records affected: 1



GetName: 46790 STARLINK-1931

Hit Count: updated at: Tue, 24 Nov 2020 12:32:03 GMT